| time (UTC) | temp C | wind direction | speed KPH | gust KPH | rain 1hr cm | rain 24hr cm | rain mn cm | humidity % | barometer mb |
| 20260506135556 | 17 | 337 | 220.5 | 0.0 | 0.00 | 0.00 | 0.00 | 46 | 986.9 |
| 20260506134556 | 17 | 45 | 0.0 | 0.0 | 0.00 | 0.00 | 0.00 | 46 | 986.9 |
| 20260506133556 | 17 | 292 | 146.5 | 0.0 | 0.00 | 0.00 | 0.00 | 46 | 986.9 |
| 20260506132556 | 17 | 270 | 146.5 | 0.0 | 0.00 | 0.00 | 0.00 | 46 | 986.7 |
| 20260506131556 | 18 | 22 | 0.0 | 0.0 | 0.00 | 0.00 | 0.00 | 46 | 986.5 |
| 20260506130556 | 18 | 22 | 0.0 | 0.0 | 0.00 | 0.00 | 0.00 | 47 | 986.5 |
| 20260506125556 | 17 | 270 | 146.5 | 0.0 | 0.00 | 0.00 | 0.00 | 46 | 986.5 |
| 20260506124556 | 17 | 22 | 0.0 | 0.0 | 0.00 | 0.00 | 0.00 | 47 | 986.5 |
| 20260506123556 | 17 | 337 | 91.7 | 0.0 | 0.00 | 0.00 | 0.00 | 47 | 986.5 |
| 20260506122556 | 17 | 45 | 0.0 | 0.0 | 0.00 | 0.00 | 0.00 | 47 | 986.5 |
| 20260506121556 | 17 | 270 | 146.5 | 0.0 | 0.00 | 0.00 | 0.00 | 48 | 986.5 |
| 20260506120556 | 17 | 45 | 0.0 | 0.0 | 0.00 | 0.00 | 0.00 | 49 | 986.5 |
| 20260506115556 | 17 | 45 | 0.0 | 0.0 | 0.00 | 0.00 | 0.00 | 49 | 986.4 |
| 20260506114556 | 17 | 45 | 0.0 | 0.0 | 0.00 | 0.00 | 0.00 | 48 | 986.4 |
| 20260506113556 | 17 | 22 | 0.0 | 0.0 | 0.00 | 0.00 | 0.00 | 50 | 986.4 |
| 20260506112556 | 17 | 22 | 0.0 | 0.0 | 0.00 | 0.00 | 0.00 | 50 | 986.5 |
| 20260506111556 | 16 | 45 | 0.0 | 0.0 | 0.00 | 0.00 | 0.00 | 51 | 986.7 |
| 20260506110556 | 16 | 45 | 0.0 | 0.0 | 0.00 | 0.00 | 0.00 | 50 | 986.7 |
| 20260506105556 | 16 | 22 | 0.0 | 0.0 | 0.00 | 0.00 | 0.00 | 50 | 986.7 |
| 20260506104556 | 16 | 45 | 0.0 | 0.0 | 0.00 | 0.00 | 0.00 | 51 | 986.7 |
| 20260506103556 | 16 | 45 | 0.0 | 0.0 | 0.00 | 0.00 | 0.00 | 52 | 986.7 |
| 20260506102556 | 16 | 22 | 0.0 | 0.0 | 0.00 | 0.00 | 0.00 | 52 | 986.7 |
| 20260506101556 | 16 | 22 | 0.0 | 0.0 | 0.00 | 0.00 | 0.00 | 52 | 986.7 |
| 20260506100556 | 15 | 337 | 17.7 | 0.0 | 0.00 | 0.00 | 0.00 | 54 | 986.7 |
| 20260506095556 | 15 | 45 | 0.0 | 0.0 | 0.00 | 0.00 | 0.00 | 54 | 986.9 |
| 20260506094556 | 15 | 22 | 0.0 | 0.0 | 0.00 | 0.00 | 0.00 | 56 | 986.9 |
| 20260506093556 | 15 | 22 | 0.0 | 0.0 | 0.00 | 0.00 | 0.00 | 57 | 987.0 |
| 20260506092556 | 15 | 270 | 146.5 | 0.0 | 0.00 | 0.00 | 0.00 | 57 | 987.0 |
| 20260506091556 | 15 | 22 | 0.0 | 0.0 | 0.00 | 0.00 | 0.00 | 59 | 987.0 |
| 20260506090556 | 14 | 22 | 0.0 | 0.0 | 0.00 | 0.00 | 0.00 | 59 | 986.9 |
| 20260506085556 | 14 | 22 | 0.0 | 0.0 | 0.00 | 0.00 | 0.00 | 61 | 986.7 |
| 20260506084556 | 13 | 22 | 0.0 | 0.0 | 0.00 | 0.00 | 0.00 | 61 | 986.9 |
| 20260506083556 | 13 | 22 | 0.0 | 0.0 | 0.00 | 0.00 | 0.00 | 63 | 986.9 |
| 20260506082556 | 13 | 22 | 0.0 | 0.0 | 0.00 | 0.00 | 0.00 | 64 | 986.9 |
| 20260506081556 | 13 | 22 | 0.0 | 0.0 | 0.00 | 0.00 | 0.00 | 66 | 986.7 |
| 20260506080556 | 12 | 22 | 0.0 | 0.0 | 0.00 | 0.00 | 0.00 | 66 | 986.7 |
| 20260506072556 | 11 | 45 | 0.0 | 0.0 | 0.00 | 0.00 | 0.00 | 71 | 986.7 |
| 20260506071556 | 11 | 0 | 0.0 | 0.0 | 0.00 | 0.00 | 0.00 | 73 | 986.7 |
| 20260506070556 | 11 | 0 | 0.0 | 0.0 | 0.00 | 0.00 | 0.00 | 75 | 986.7 |
| 20260506061555 | 8 | 315 | 294.5 | 0.0 | 0.00 | 0.00 | 0.00 | 84 | 986.7 |
| 20260506060556 | 7 | 22 | 0.0 | 0.0 | 0.00 | 0.00 | 0.00 | 85 | 986.7 |
| 20260506050555 | 5 | 315 | 294.5 | 0.0 | 0.00 | 0.00 | 0.00 | 87 | 986.7 |
| 20260506044555 | 5 | 22 | 0.0 | 0.0 | 0.00 | 0.00 | 0.00 | 86 | 986.7 |
| 20260506043555 | 5 | 22 | 0.0 | 0.0 | 0.00 | 0.00 | 0.00 | 86 | 986.7 |
| 20260506042555 | 5 | 22 | 0.0 | 0.0 | 0.00 | 0.00 | 0.00 | 86 | 986.7 |
| 20260506041555 | 5 | 22 | 0.0 | 0.0 | 0.00 | 0.00 | 0.00 | 86 | 986.7 |
| 20260506040555 | 4 | 22 | 0.0 | 0.0 | 0.00 | 0.00 | 0.00 | 85 | 986.5 |
| 20260506035555 | 4 | 22 | 0.0 | 0.0 | 0.00 | 0.00 | 0.00 | 85 | 986.7 |
| 20260506034555 | 4 | 22 | 0.0 | 0.0 | 0.00 | 0.00 | 0.00 | 85 | 986.5 |
| 20260506033555 | 4 | 22 | 0.0 | 0.0 | 0.00 | 0.00 | 0.00 | 84 | 986.7 |
| 20260506032555 | 4 | 270 | 294.5 | 0.0 | 0.00 | 0.00 | 0.00 | 84 | 986.5 |
| 20260506031555 | 4 | 22 | 0.0 | 0.0 | 0.00 | 0.00 | 0.00 | 84 | 986.7 |
| 20260506030555 | 4 | 22 | 0.0 | 0.0 | 0.00 | 0.00 | 0.00 | 84 | 986.9 |
| 20260506025555 | 4 | 22 | 0.0 | 0.0 | 0.00 | 0.00 | 0.00 | 83 | 986.7 |
| 20260506024555 | 4 | 270 | 294.5 | 0.0 | 0.00 | 0.00 | 0.00 | 83 | 986.9 |
| 20260506023555 | 4 | 22 | 0.0 | 0.0 | 0.00 | 0.00 | 0.00 | 83 | 987.0 |
| 20260506022555 | 4 | 337 | 146.5 | 0.0 | 0.00 | 0.00 | 0.00 | 83 | 987.0 |
| 20260506021555 | 5 | 270 | 294.5 | 0.0 | 0.00 | 0.00 | 0.00 | 82 | 987.2 |
| 20260506020555 | 5 | 270 | 294.5 | 0.0 | 0.00 | 0.00 | 0.00 | 82 | 987.2 |
| 20260506015555 | 5 | 270 | 294.5 | 0.0 | 0.00 | 0.00 | 0.00 | 82 | 987.0 |
| 20260506014555 | 5 | 22 | 0.0 | 0.0 | 0.00 | 0.00 | 0.00 | 82 | 987.2 |
| 20260506013555 | 5 | 22 | 0.0 | 0.0 | 0.00 | 0.00 | 0.00 | 81 | 987.4 |
| 20260506012555 | 5 | 22 | 0.0 | 0.0 | 0.00 | 0.00 | 0.00 | 81 | 987.4 |
| 20260506011555 | 5 | 22 | 0.0 | 0.0 | 0.00 | 0.00 | 0.00 | 81 | 987.4 |
| 20260506010555 | 5 | 22 | 0.0 | 0.0 | 0.00 | 0.00 | 0.00 | 81 | 987.4 |
| 20260506005555 | 5 | 22 | 0.0 | 0.0 | 0.00 | 0.00 | 0.00 | 81 | 987.4 |
| 20260506004555 | 5 | 337 | 146.5 | 0.0 | 0.00 | 0.00 | 0.00 | 80 | 987.5 |
| 20260506003555 | 5 | 337 | 146.5 | 0.0 | 0.00 | 0.00 | 0.00 | 80 | 987.4 |
| 20260506002555 | 5 | 337 | 146.5 | 0.0 | 0.00 | 0.00 | 0.00 | 79 | 987.4 |
| 20260506001555 | 6 | 22 | 0.0 | 0.0 | 0.00 | 0.00 | 0.00 | 79 | 987.2 |
| 20260506000555 | 6 | 22 | 0.0 | 0.0 | 0.00 | 0.00 | 0.00 | 79 | 987.4 |
| 20260505235555 | 6 | 337 | 146.5 | 0.0 | 0.00 | 0.00 | 0.00 | 78 | 987.5 |
| 20260505234555 | 6 | 22 | 0.0 | 0.0 | 0.00 | 0.00 | 0.00 | 78 | 987.7 |
| 20260505233555 | 6 | 22 | 0.0 | 0.0 | 0.00 | 0.00 | 0.00 | 78 | 987.7 |
| 20260505232555 | 6 | 270 | 294.5 | 0.0 | 0.00 | 0.00 | 0.00 | 78 | 987.7 |
| 20260505231555 | 6 | 270 | 294.5 | 0.0 | 0.00 | 0.00 | 0.00 | 78 | 987.7 |
| 20260505230555 | 7 | 22 | 0.0 | 0.0 | 0.00 | 0.00 | 0.00 | 77 | 987.7 |
| 20260505225555 | 7 | 22 | 0.0 | 0.0 | 0.00 | 0.00 | 0.00 | 77 | 987.7 |
| 20260505224555 | 7 | 22 | 0.0 | 0.0 | 0.00 | 0.00 | 0.00 | 77 | 987.7 |
| 20260505223555 | 7 | 22 | 0.0 | 0.0 | 0.00 | 0.00 | 0.00 | 77 | 987.7 |
| 20260505222555 | 7 | 22 | 0.0 | 0.0 | 0.00 | 0.00 | 0.00 | 76 | 987.7 |
| 20260505221555 | 7 | 22 | 0.0 | 0.0 | 0.00 | 0.00 | 0.00 | 76 | 987.7 |
| 20260505220555 | 7 | 22 | 0.0 | 0.0 | 0.00 | 0.00 | 0.00 | 76 | 987.7 |
| 20260505215555 | 7 | 22 | 0.0 | 0.0 | 0.00 | 0.00 | 0.00 | 76 | 987.7 |
| 20260505214555 | 7 | 22 | 0.0 | 0.0 | 0.00 | 0.00 | 0.00 | 76 | 987.9 |
| 20260505213555 | 7 | 22 | 0.0 | 0.0 | 0.00 | 0.00 | 0.00 | 76 | 988.0 |
| 20260505212555 | 7 | 22 | 0.0 | 0.0 | 0.00 | 0.00 | 0.00 | 76 | 987.9 |
| 20260505211555 | 7 | 22 | 0.0 | 0.0 | 0.00 | 0.00 | 0.00 | 76 | 988.0 |
| 20260505210555 | 8 | 22 | 0.0 | 0.0 | 0.00 | 0.00 | 0.00 | 76 | 987.9 |
| 20260505205555 | 8 | 22 | 0.0 | 0.0 | 0.00 | 0.00 | 0.00 | 76 | 987.7 |
| 20260505204555 | 8 | 22 | 0.0 | 0.0 | 0.00 | 0.00 | 0.00 | 77 | 988.2 |
| 20260505203555 | 8 | 22 | 0.0 | 0.0 | 0.00 | 0.00 | 0.00 | 77 | 988.2 |
| 20260505202555 | 8 | 22 | 0.0 | 0.0 | 0.00 | 0.00 | 0.00 | 77 | 988.2 |
| 20260505201555 | 8 | 22 | 0.0 | 0.0 | 0.00 | 0.00 | 0.00 | 77 | 988.0 |
| 20260505200555 | 9 | 22 | 0.0 | 0.0 | 0.00 | 0.00 | 0.00 | 78 | 988.0 |
| 20260505195555 | 9 | 22 | 0.0 | 0.0 | 0.00 | 0.00 | 0.00 | 77 | 987.9 |
| 20260505194555 | 9 | 22 | 0.0 | 0.0 | 0.00 | 0.00 | 0.00 | 77 | 988.0 |
| 20260505193555 | 9 | 22 | 0.0 | 0.0 | 0.00 | 0.00 | 0.00 | 76 | 987.9 |
| 20260505192555 | 10 | 22 | 0.0 | 0.0 | 0.00 | 0.00 | 0.00 | 75 | 988.0 |
| 20260505191555 | 10 | 22 | 0.0 | 0.0 | 0.00 | 0.00 | 0.00 | 75 | 987.7 |
| 20260505190555 | 10 | 22 | 0.0 | 0.0 | 0.00 | 0.00 | 0.00 | 75 | 987.5 |
| 20260505185555 | 11 | 22 | 0.0 | 0.0 | 0.00 | 0.00 | 0.00 | 73 | 987.5 |
| 20260505184555 | 11 | 22 | 0.0 | 0.0 | 0.00 | 0.00 | 0.00 | 72 | 987.5 |
| 20260505183555 | 11 | 22 | 0.0 | 0.0 | 0.00 | 0.00 | 0.00 | 71 | 987.5 |
| 20260505182555 | 12 | 22 | 0.0 | 0.0 | 0.00 | 0.00 | 0.00 | 69 | 987.5 |
| 20260505181555 | 12 | 22 | 0.0 | 0.0 | 0.00 | 0.00 | 0.00 | 66 | 987.5 |
| 20260505180555 | 13 | 22 | 0.0 | 0.0 | 0.00 | 0.00 | 0.00 | 63 | 987.5 |
| 20260505175555 | 13 | 22 | 0.0 | 0.0 | 0.00 | 0.00 | 0.00 | 63 | 987.5 |
| 20260505174555 | 14 | 22 | 0.0 | 0.0 | 0.00 | 0.00 | 0.00 | 63 | 987.5 |
| 20260505173555 | 14 | 22 | 0.0 | 0.0 | 0.00 | 0.00 | 0.00 | 62 | 987.5 |
| 20260505172555 | 14 | 22 | 0.0 | 0.0 | 0.00 | 0.00 | 0.00 | 62 | 987.5 |
| 20260505171555 | 14 | 22 | 0.0 | 0.0 | 0.00 | 0.00 | 0.00 | 61 | 987.5 |
| 20260505170555 | 14 | 22 | 0.0 | 0.0 | 0.00 | 0.00 | 0.00 | 61 | 987.7 |
| 20260505165555 | 14 | 22 | 0.0 | 0.0 | 0.00 | 0.00 | 0.00 | 60 | 987.7 |
| 20260505164555 | 15 | 22 | 0.0 | 0.0 | 0.00 | 0.00 | 0.00 | 60 | 987.7 |
| 20260505163555 | 15 | 22 | 0.0 | 0.0 | 0.00 | 0.00 | 0.00 | 59 | 987.7 |
| 20260505162555 | 15 | 22 | 0.0 | 0.0 | 0.00 | 0.00 | 0.00 | 59 | 987.7 |
| 20260505161555 | 15 | 22 | 0.0 | 0.0 | 0.00 | 0.00 | 0.00 | 59 | 987.7 |
| 20260505160555 | 15 | 22 | 0.0 | 0.0 | 0.00 | 0.00 | 0.00 | 59 | 987.7 |
| 20260505152555 | 16 | 22 | 0.0 | 0.0 | 0.00 | 0.00 | 0.00 | 58 | 988.2 |
| 20260505151555 | 16 | 0 | 0.0 | 0.0 | 0.00 | 0.00 | 0.00 | 58 | 988.0 |
| 20260505150555 | 16 | 0 | 0.0 | 0.0 | 0.00 | 0.00 | 0.00 | 57 | 988.0 |
| 20260505140555 | 16 | 0 | 0.0 | 0.0 | 0.00 | 0.00 | 0.00 | 59 | 988.2 |